Tracking 35048 objects as of 19-Aug-2026
HD Live streaming from Space Station
objects crossing your sky now

N-1 DEB

Track N-1 DEB now!
10-day predictions


NORAD ID: 14569
Int'l Code: 1982-087D
Launch date: September 3, 1982
Source: Japan (JPN)
Launch site: TANEGASHIMA SPACE CENTER (TNSTA)

Note: This is SATELLITE DEBRIS
Your satellite tracking list
Your tracking list is empty




NASA's NSSDC Master Catalog

Two Line Element Set (TLE):
1 14569U 82087D   26231.15780532 -.00000079  00000-0  45885-4 0  9996
2 14569  44.8417 153.6189 0122320 197.0981 300.9663 13.55860843212963
Source of the keplerian elements: AFSPC